owner,sensor,date,latitude,longitude,vertical_datum,wind_speed,wind_to_direction,wind_speed_of_gust,qcFlag 
COMPS,ioos:station:USF.COMPS:ARP:1,2017-09-01T00:00:00Z,28.4330,-82.6670,10.0,0.39,79.49,1.07,'1111122,1111122,1111122' 
COMPS,ioos:station:USF.COMPS:ARP:1,2017-09-01T00:06:00Z,28.4330,-82.6670,10.0,1.12,100.09,1.37,'1111122,1111122,1111122' 
COMPS,ioos:station:USF.COMPS:ARP:1,2017-09-01T00:12:00Z,28.4330,-82.6670,10.0,0.67,101.16,1.27,'1111122,1111122,1111122' 
COMPS,ioos:station:USF.COMPS:ARP:1,2017-09-01T00:18:00Z,28.4330,-82.6670,10.0,0.46,162.98,1.07,'1111122,1111122,1111122' 
COMPS,ioos:station:USF.COMPS:ARP:1,2017-09-01T00:24:00Z,28.4330,-82.6670,10.0,0.2,153.58,0.68,'1111122,1111122,1111122' 
COMPS,ioos:station:USF.COMPS:ARP:1,2017-09-01T00:36:00Z,28.4330,-82.6670,10.0,0.12,32.36,0.39,'1111122,1111122,1111122' 
COMPS,ioos:station:USF.COMPS:ARP:1,2017-09-01T00:42:00Z,28.4330,-82.6670,10.0,0.45,85.08,0.88,'1111122,1111122,1111122' 
COMPS,ioos:station:USF.COMPS:ARP:1,2017-09-01T00:48:00Z,28.4330,-82.6670,10.0,0.59,98.29,0.88,'1111122,1111122,1111122' 
COMPS,ioos:station:USF.COMPS:ARP:1,2017-09-01T00:54:00Z,28.4330,-82.6670,10.0,0.8,90.93,1.17,'1111122,1111122,1111122' 
COMPS,ioos:station:USF.COMPS:ARP:1,2017-09-01T01:00:00Z,28.4330,-82.6670,10.0,0.89,78.59,1.07,'1111122,1111122,1111122' 
COMPS,ioos:station:USF.COMPS:ARP:1,2017-09-01T01:06:00Z,28.4330,-82.6670,10.0,0.56,90.9,0.78,'1111122,1111122,1111122' 
COMPS,ioos:station:USF.COMPS:ARP:1,2017-09-01T01:12:00Z,28.4330,-82.6670,10.0,0.6,98.45,0.78,'1111122,1111122,1111122' 
COMPS,ioos:station:USF.COMPS:ARP:1,2017-09-01T01:18:00Z,28.4330,-82.6670,10.0,0.86,97.03,1.07,'1111122,1111122,1111122' 
COMPS,ioos:station:USF.COMPS:ARP:1,2017-09-01T01:24:00Z,28.4330,-82.6670,10.0,0.85,96.66,1.07,'1111122,1111122,1111122' 
COMPS,ioos:station:USF.COMPS:ARP:1,2017-09-01T01:30:00Z,28.4330,-82.6670,10.0,0.67,87.95,0.88,'1111122,1111122,1111122' 
COMPS,ioos:station:USF.COMPS:ARP:1,2017-09-01T01:36:00Z,28.4330,-82.6670,10.0,0.59,76.75,0.78,'1111122,1111122,1111122' 
COMPS,ioos:station:USF.COMPS:ARP:1,2017-09-01T01:42:00Z,28.4330,-82.6670,10.0,0.38,79.96,0.78,'1111122,1111122,1111122' 
COMPS,ioos:station:USF.COMPS:ARP:1,2017-09-01T01:48:00Z,28.4330,-82.6670,10.0,0.51,73.54,0.78,'1111122,1111122,1111122' 
COMPS,ioos:station:USF.COMPS:ARP:1,2017-09-01T01:54:00Z,28.4330,-82.6670,10.0,0.51,82.63,0.68,'1111122,1111122,1111122' 
COMPS,ioos:station:USF.COMPS:ARP:1,2017-09-01T02:00:00Z,28.4330,-82.6670,10.0,0.43,67.22,0.58,'1111122,1111122,1111122' 
COMPS,ioos:station:USF.COMPS:ARP:1,2017-09-01T02:06:00Z,28.4330,-82.6670,10.0,0.72,79.67,0.97,'1111122,1111122,1111122' 
COMPS,ioos:station:USF.COMPS:ARP:1,2017-09-01T02:12:00Z,28.4330,-82.6670,10.0,0.69,88.02,0.88,'1111122,1111122,1111122' 
COMPS,ioos:station:USF.COMPS:ARP:1,2017-09-01T02:18:00Z,28.4330,-82.6670,10.0,0.5,106.76,0.88,'1111122,1111122,1111122' 
COMPS,ioos:station:USF.COMPS:ARP:1,2017-09-01T02:24:00Z,28.4330,-82.6670,10.0,0.56,88.0,0.78,'1111122,1111122,1111122' 
COMPS,ioos:station:USF.COMPS:ARP:1,2017-09-01T02:30:00Z,28.4330,-82.6670,10.0,0.73,70.68,0.88,'1111122,1111122,1111122' 
COMPS,ioos:station:USF.COMPS:ARP:1,2017-09-01T02:36:00Z,28.4330,-82.6670,10.0,0.81,83.48,1.07,'1111122,1111122,1111122' 
COMPS,ioos:station:USF.COMPS:ARP:1,2017-09-01T02:42:00Z,28.4330,-82.6670,10.0,0.7,135.29,1.07,'1111122,1111122,1111122' 
COMPS,ioos:station:USF.COMPS:ARP:1,2017-09-01T02:48:00Z,28.4330,-82.6670,10.0,0.78,127.96,1.27,'1111122,1111122,1111122' 
COMPS,ioos:station:USF.COMPS:ARP:1,2017-09-01T02:54:00Z,28.4330,-82.6670,10.0,0.81,111.05,1.46,'1111122,1111122,1111122' 
COMPS,ioos:station:USF.COMPS:ARP:1,2017-09-01T03:00:00Z,28.4330,-82.6670,10.0,0.55,111.19,0.88,'1111122,1111122,1111122' 
COMPS,ioos:station:USF.COMPS:ARP:1,2017-09-01T03:06:00Z,28.4330,-82.6670,10.0,0.82,126.19,1.86,'1111122,1111122,1111122' 
COMPS,ioos:station:USF.COMPS:ARP:1,2017-09-01T03:12:00Z,28.4330,-82.6670,10.0,1.0,125.17,1.76,'1111122,1111122,1111122' 
COMPS,ioos:station:USF.COMPS:ARP:1,2017-09-01T03:18:00Z,28.4330,-82.6670,10.0,0.98,115.71,1.56,'1111122,1111122,1111122' 
COMPS,ioos:station:USF.COMPS:ARP:1,2017-09-01T03:24:00Z,28.4330,-82.6670,10.0,1.03,111.8,1.95,'1111122,1111122,1111122' 
COMPS,ioos:station:USF.COMPS:ARP:1,2017-09-01T03:30:00Z,28.4330,-82.6670,10.0,0.64,101.89,1.27,'1111122,1111122,1111122' 
COMPS,ioos:station:USF.COMPS:ARP:1,2017-09-01T03:36:00Z,28.4330,-82.6670,10.0,0.65,108.59,1.07,'1111122,1111122,1111122' 
COMPS,ioos:station:USF.COMPS:ARP:1,2017-09-01T03:42:00Z,28.4330,-82.6670,10.0,0.93,107.4,1.56,'1111122,1111122,1111122' 
COMPS,ioos:station:USF.COMPS:ARP:1,2017-09-01T03:48:00Z,28.4330,-82.6670,10.0,1.26,86.87,1.66,'1111122,1111122,1111122' 
COMPS,ioos:station:USF.COMPS:ARP:1,2017-09-01T03:54:00Z,28.4330,-82.6670,10.0,1.48,102.65,2.05,'1111122,1111122,1111122' 
COMPS,ioos:station:USF.COMPS:ARP:1,2017-09-01T04:00:00Z,28.4330,-82.6670,10.0,1.46,102.06,2.54,'1111122,1111122,1111122' 
COMPS,ioos:station:USF.COMPS:ARP:1,2017-09-01T04:06:00Z,28.4330,-82.6670,10.0,1.39,103.36,1.86,'1111122,1111122,1111122' 
COMPS,ioos:station:USF.COMPS:ARP:1,2017-09-01T04:12:00Z,28.4330,-82.6670,10.0,1.78,106.39,2.45,'1111122,1111122,1111122' 
COMPS,ioos:station:USF.COMPS:ARP:1,2017-09-01T04:18:00Z,28.4330,-82.6670,10.0,1.0,115.36,1.76,'1111122,1111122,1111122' 
COMPS,ioos:station:USF.COMPS:ARP:1,2017-09-01T04:24:00Z,28.4330,-82.6670,10.0,1.2,121.7,2.64,'1111122,1111122,1111122' 
COMPS,ioos:station:USF.COMPS:ARP:1,2017-09-01T04:30:00Z,28.4330,-82.6670,10.0,1.87,109.64,2.64,'1111122,1111122,1111122' 
COMPS,ioos:station:USF.COMPS:ARP:1,2017-09-01T04:36:00Z,28.4330,-82.6670,10.0,1.64,105.96,2.64,'1111122,1111122,1111122' 
COMPS,ioos:station:USF.COMPS:ARP:1,2017-09-01T04:42:00Z,28.4330,-82.6670,10.0,1.91,102.33,2.74,'1111122,1111122,1111122' 
COMPS,ioos:station:USF.COMPS:ARP:1,2017-09-01T04:48:00Z,28.4330,-82.6670,10.0,2.2,104.49,3.42,'1111122,1111122,1111122' 
COMPS,ioos:station:USF.COMPS:ARP:1,2017-09-01T04:54:00Z,28.4330,-82.6670,10.0,2.62,114.12,3.91,'1111122,1111122,1111122' 
COMPS,ioos:station:USF.COMPS:ARP:1,2017-09-01T05:00:00Z,28.4330,-82.6670,10.0,2.39,111.31,3.62,'1111122,1111122,1111122' 
COMPS,ioos:station:USF.COMPS:ARP:1,2017-09-01T05:06:00Z,28.4330,-82.6670,10.0,2.3,118.86,3.82,'1111122,1111122,1111122' 
COMPS,ioos:station:USF.COMPS:ARP:1,2017-09-01T05:12:00Z,28.4330,-82.6670,10.0,2.2,112.47,4.41,'1111122,1111122,1111122' 
COMPS,ioos:station:USF.COMPS:ARP:1,2017-09-01T05:18:00Z,28.4330,-82.6670,10.0,2.1,109.82,2.84,'1111122,1111122,1111122' 
COMPS,ioos:station:USF.COMPS:ARP:1,2017-09-01T05:24:00Z,28.4330,-82.6670,10.0,1.83,111.91,2.93,'1111122,1111122,1111122' 
COMPS,ioos:station:USF.COMPS:ARP:1,2017-09-01T05:30:00Z,28.4330,-82.6670,10.0,1.66,109.32,2.45,'1111122,1111122,1111122' 
COMPS,ioos:station:USF.COMPS:ARP:1,2017-09-01T05:36:00Z,28.4330,-82.6670,10.0,1.62,101.4,2.45,'1111122,1111122,1111122' 
COMPS,ioos:station:USF.COMPS:ARP:1,2017-09-01T05:42:00Z,28.4330,-82.6670,10.0,1.62,106.56,2.25,'1111122,1111122,1111122' 
COMPS,ioos:station:USF.COMPS:ARP:1,2017-09-01T05:48:00Z,28.4330,-82.6670,10.0,1.75,106.04,2.64,'1111122,1111122,1111122' 
COMPS,ioos:station:USF.COMPS:ARP:1,2017-09-01T05:54:00Z,28.4330,-82.6670,10.0,2.18,107.85,3.23,'1111122,1111122,1111122' 
COMPS,ioos:station:USF.COMPS:ARP:1,2017-09-01T06:00:00Z,28.4330,-82.6670,10.0,2.28,110.98,3.52,'1111122,1111122,1111122' 
COMPS,ioos:station:USF.COMPS:ARP:1,2017-09-01T06:06:00Z,28.4330,-82.6670,10.0,2.03,111.85,3.52,'1111122,1111122,1111122' 
COMPS,ioos:station:USF.COMPS:ARP:1,2017-09-01T06:12:00Z,28.4330,-82.6670,10.0,1.49,112.2,2.45,'1111122,1111122,1111122' 
COMPS,ioos:station:USF.COMPS:ARP:1,2017-09-01T06:18:00Z,28.4330,-82.6670,10.0,1.84,108.32,2.84,'1111122,1111122,1111122' 
COMPS,ioos:station:USF.COMPS:ARP:1,2017-09-01T06:24:00Z,28.4330,-82.6670,10.0,2.01,112.19,2.84,'1111122,1111122,1111122' 
COMPS,ioos:station:USF.COMPS:ARP:1,2017-09-01T06:30:00Z,28.4330,-82.6670,10.0,1.22,117.94,2.05,'1111122,1111122,1111122' 
COMPS,ioos:station:USF.COMPS:ARP:1,2017-09-01T06:36:00Z,28.4330,-82.6670,10.0,1.04,115.7,1.56,'1111122,1111122,1111122' 
COMPS,ioos:station:USF.COMPS:ARP:1,2017-09-01T06:42:00Z,28.4330,-82.6670,10.0,1.41,114.74,2.25,'1111122,1111122,1111122' 
COMPS,ioos:station:USF.COMPS:ARP:1,2017-09-01T06:48:00Z,28.4330,-82.6670,10.0,1.79,110.39,2.74,'1111122,1111122,1111122' 
COMPS,ioos:station:USF.COMPS:ARP:1,2017-09-01T06:54:00Z,28.4330,-82.6670,10.0,1.39,113.77,2.54,'1111122,1111122,1111122' 
COMPS,ioos:station:USF.COMPS:ARP:1,2017-09-01T07:00:00Z,28.4330,-82.6670,10.0,1.61,119.07,3.03,'1111122,1111122,1111122' 
COMPS,ioos:station:USF.COMPS:ARP:1,2017-09-01T07:06:00Z,28.4330,-82.6670,10.0,1.7,114.38,2.54,'1111122,1111122,1111122' 
COMPS,ioos:station:USF.COMPS:ARP:1,2017-09-01T07:12:00Z,28.4330,-82.6670,10.0,1.87,108.44,2.84,'1111122,1111122,1111122' 
COMPS,ioos:station:USF.COMPS:ARP:1,2017-09-01T07:18:00Z,28.4330,-82.6670,10.0,1.79,113.08,3.13,'1111122,1111122,1111122' 
COMPS,ioos:station:USF.COMPS:ARP:1,2017-09-01T07:24:00Z,28.4330,-82.6670,10.0,1.91,102.7,2.93,'1111122,1111122,1111122' 
COMPS,ioos:station:USF.COMPS:ARP:1,2017-09-01T07:30:00Z,28.4330,-82.6670,10.0,2.43,109.28,4.01,'1111122,1111122,1111122' 
COMPS,ioos:station:USF.COMPS:ARP:1,2017-09-01T07:36:00Z,28.4330,-82.6670,10.0,2.16,110.57,3.33,'1111122,1111122,1111122' 
COMPS,ioos:station:USF.COMPS:ARP:1,2017-09-01T07:42:00Z,28.4330,-82.6670,10.0,1.98,111.06,3.33,'1111122,1111122,1111122' 
COMPS,ioos:station:USF.COMPS:ARP:1,2017-09-01T07:48:00Z,28.4330,-82.6670,10.0,1.35,112.87,2.05,'1111122,1111122,1111122' 
COMPS,ioos:station:USF.COMPS:ARP:1,2017-09-01T07:54:00Z,28.4330,-82.6670,10.0,1.28,108.67,2.25,'1111122,1111122,1111122' 
COMPS,ioos:station:USF.COMPS:ARP:1,2017-09-01T08:00:00Z,28.4330,-82.6670,10.0,1.28,107.26,1.95,'1111122,1111122,1111122' 
COMPS,ioos:station:USF.COMPS:ARP:1,2017-09-01T08:06:00Z,28.4330,-82.6670,10.0,1.7,102.97,2.74,'1111122,1111122,1111122' 
COMPS,ioos:station:USF.COMPS:ARP:1,2017-09-01T08:12:00Z,28.4330,-82.6670,10.0,1.96,98.98,2.84,'1111122,1111122,1111122' 
COMPS,ioos:station:USF.COMPS:ARP:1,2017-09-01T08:18:00Z,28.4330,-82.6670,10.0,1.74,108.67,2.35,'1111122,1111122,1111122' 
COMPS,ioos:station:USF.COMPS:ARP:1,2017-09-01T08:24:00Z,28.4330,-82.6670,10.0,2.39,104.28,3.13,'1111122,1111122,1111122' 
COMPS,ioos:station:USF.COMPS:ARP:1,2017-09-01T08:30:00Z,28.4330,-82.6670,10.0,2.05,109.94,2.74,'1111122,1111122,1111122' 
COMPS,ioos:station:USF.COMPS:ARP:1,2017-09-01T08:36:00Z,28.4330,-82.6670,10.0,1.98,103.84,3.23,'1111122,1111122,1111122' 
COMPS,ioos:station:USF.COMPS:ARP:1,2017-09-01T08:42:00Z,28.4330,-82.6670,10.0,2.21,98.36,3.33,'1111122,1111122,1111122' 
COMPS,ioos:station:USF.COMPS:ARP:1,2017-09-01T08:48:00Z,28.4330,-82.6670,10.0,2.0,89.28,3.23,'1111122,1111122,1111122' 
COMPS,ioos:station:USF.COMPS:ARP:1,2017-09-01T08:54:00Z,28.4330,-82.6670,10.0,1.74,103.11,2.74,'1111122,1111122,1111122' 
COMPS,ioos:station:USF.COMPS:ARP:1,2017-09-01T09:00:00Z,28.4330,-82.6670,10.0,1.86,109.37,2.74,'1111122,1111122,1111122' 
COMPS,ioos:station:USF.COMPS:ARP:1,2017-09-01T09:06:00Z,28.4330,-82.6670,10.0,1.57,106.74,2.25,'1111122,1111122,1111122' 
COMPS,ioos:station:USF.COMPS:ARP:1,2017-09-01T09:12:00Z,28.4330,-82.6670,10.0,1.67,102.65,2.35,'1111122,1111122,1111122' 
COMPS,ioos:station:USF.COMPS:ARP:1,2017-09-01T09:18:00Z,28.4330,-82.6670,10.0,1.97,110.37,2.93,'1111122,1111122,1111122' 
COMPS,ioos:station:USF.COMPS:ARP:1,2017-09-01T09:24:00Z,28.4330,-82.6670,10.0,1.29,119.62,2.15,'1111122,1111122,1111122' 
COMPS,ioos:station:USF.COMPS:ARP:1,2017-09-01T09:30:00Z,28.4330,-82.6670,10.0,1.69,106.76,2.45,'1111122,1111122,1111122' 
COMPS,ioos:station:USF.COMPS:ARP:1,2017-09-01T09:36:00Z,28.4330,-82.6670,10.0,1.24,107.82,2.25,'1111122,1111122,1111122' 
COMPS,ioos:station:USF.COMPS:ARP:1,2017-09-01T09:42:00Z,28.4330,-82.6670,10.0,1.48,104.83,2.35,'1111122,1111122,1111122' 
COMPS,ioos:station:USF.COMPS:ARP:1,2017-09-01T09:48:00Z,28.4330,-82.6670,10.0,1.16,120.83,2.25,'1111122,1111122,1111122' 
COMPS,ioos:station:USF.COMPS:ARP:1,2017-09-01T09:54:00Z,28.4330,-82.6670,10.0,0.85,127.6,1.66,'1111122,1111122,1111122' 
COMPS,ioos:station:USF.COMPS:ARP:1,2017-09-01T10:00:00Z,28.4330,-82.6670,10.0,1.27,131.97,2.15,'1111122,1111122,1111122' 
COMPS,ioos:station:USF.COMPS:ARP:1,2017-09-01T10:06:00Z,28.4330,-82.6670,10.0,0.89,131.81,1.76,'1111122,1111122,1111122' 
COMPS,ioos:station:USF.COMPS:ARP:1,2017-09-01T10:12:00Z,28.4330,-82.6670,10.0,1.03,117.63,2.45,'1111122,1111122,1111122' 
COMPS,ioos:station:USF.COMPS:ARP:1,2017-09-01T10:18:00Z,28.4330,-82.6670,10.0,1.42,105.04,2.35,'1111122,1111122,1111122' 
COMPS,ioos:station:USF.COMPS:ARP:1,2017-09-01T10:24:00Z,28.4330,-82.6670,10.0,1.77,109.3,2.64,'1111122,1111122,1111122' 
COMPS,ioos:station:USF.COMPS:ARP:1,2017-09-01T10:30:00Z,28.4330,-82.6670,10.0,1.94,105.82,2.64,'1111122,1111122,1111122' 
COMPS,ioos:station:USF.COMPS:ARP:1,2017-09-01T10:36:00Z,28.4330,-82.6670,10.0,2.01,109.08,2.84,'1111122,1111122,1111122' 
COMPS,ioos:station:USF.COMPS:ARP:1,2017-09-01T10:42:00Z,28.4330,-82.6670,10.0,2.11,117.65,3.82,'1111122,1111122,1111122' 
COMPS,ioos:station:USF.COMPS:ARP:1,2017-09-01T10:48:00Z,28.4330,-82.6670,10.0,1.39,109.67,2.35,'1111122,1111122,1111122' 
COMPS,ioos:station:USF.COMPS:ARP:1,2017-09-01T10:54:00Z,28.4330,-82.6670,10.0,1.44,117.49,2.54,'1111122,1111122,1111122' 
COMPS,ioos:station:USF.COMPS:ARP:1,2017-09-01T11:00:00Z,28.4330,-82.6670,10.0,1.22,123.01,2.35,'1111122,1111122,1111122' 
COMPS,ioos:station:USF.COMPS:ARP:1,2017-09-01T11:06:00Z,28.4330,-82.6670,10.0,1.63,113.27,2.54,'1111122,1111122,1111122' 
COMPS,ioos:station:USF.COMPS:ARP:1,2017-09-01T11:12:00Z,28.4330,-82.6670,10.0,1.11,136.44,1.95,'1111122,1111122,1111122' 
COMPS,ioos:station:USF.COMPS:ARP:1,2017-09-01T11:18:00Z,28.4330,-82.6670,10.0,1.27,110.3,2.25,'1111122,1111122,1111122' 
COMPS,ioos:station:USF.COMPS:ARP:1,2017-09-01T11:24:00Z,28.4330,-82.6670,10.0,1.55,101.31,2.35,'1111122,1111122,1111122' 
COMPS,ioos:station:USF.COMPS:ARP:1,2017-09-01T11:30:00Z,28.4330,-82.6670,10.0,1.52,104.86,2.25,'1111122,1111122,1111122' 
COMPS,ioos:station:USF.COMPS:ARP:1,2017-09-01T11:36:00Z,28.4330,-82.6670,10.0,1.41,108.97,2.25,'1111122,1111122,1111122' 
COMPS,ioos:station:USF.COMPS:ARP:1,2017-09-01T11:42:00Z,28.4330,-82.6670,10.0,0.96,115.0,1.66,'1111122,1111122,1111122' 
COMPS,ioos:station:USF.COMPS:ARP:1,2017-09-01T11:48:00Z,28.4330,-82.6670,10.0,0.97,114.29,1.76,'1111122,1111122,1111122' 
COMPS,ioos:station:USF.COMPS:ARP:1,2017-09-01T11:54:00Z,28.4330,-82.6670,10.0,0.52,138.78,1.46,'1111122,1111122,1111122' 
COMPS,ioos:station:USF.COMPS:ARP:1,2017-09-01T12:00:00Z,28.4330,-82.6670,10.0,0.73,137.22,1.76,'1111122,1111122,1111122' 
COMPS,ioos:station:USF.COMPS:ARP:1,2017-09-01T12:06:00Z,28.4330,-82.6670,10.0,0.88,138.01,2.25,'1111122,1111122,1111122' 
COMPS,ioos:station:USF.COMPS:ARP:1,2017-09-01T12:12:00Z,28.4330,-82.6670,10.0,0.73,133.2,1.95,'1111122,1111122,1111122' 
COMPS,ioos:station:USF.COMPS:ARP:1,2017-09-01T12:18:00Z,28.4330,-82.6670,10.0,0.9,109.61,1.76,'1111122,1111122,1111122' 
COMPS,ioos:station:USF.COMPS:ARP:1,2017-09-01T12:24:00Z,28.4330,-82.6670,10.0,0.91,131.07,1.86,'1111122,1111122,1111122' 
COMPS,ioos:station:USF.COMPS:ARP:1,2017-09-01T12:30:00Z,28.4330,-82.6670,10.0,0.86,142.86,1.76,'1111122,1111122,1111122' 
COMPS,ioos:station:USF.COMPS:ARP:1,2017-09-01T12:36:00Z,28.4330,-82.6670,10.0,1.09,137.37,1.95,'1111122,1111122,1111122' 
COMPS,ioos:station:USF.COMPS:ARP:1,2017-09-01T12:42:00Z,28.4330,-82.6670,10.0,0.94,138.34,1.95,'1111122,1111122,1111122' 
COMPS,ioos:station:USF.COMPS:ARP:1,2017-09-01T12:48:00Z,28.4330,-82.6670,10.0,1.15,123.32,3.13,'1111122,1111122,1111122' 
COMPS,ioos:station:USF.COMPS:ARP:1,2017-09-01T12:54:00Z,28.4330,-82.6670,10.0,1.6,120.87,3.52,'1111122,1111122,1111122' 
COMPS,ioos:station:USF.COMPS:ARP:1,2017-09-01T13:00:00Z,28.4330,-82.6670,10.0,1.82,131.12,2.74,'1111122,1111122,1111122' 
COMPS,ioos:station:USF.COMPS:ARP:1,2017-09-01T13:06:00Z,28.4330,-82.6670,10.0,1.55,136.21,2.74,'1111122,1111122,1111122' 
COMPS,ioos:station:USF.COMPS:ARP:1,2017-09-01T13:12:00Z,28.4330,-82.6670,10.0,1.11,128.16,2.74,'1111122,1111122,1111122' 
COMPS,ioos:station:USF.COMPS:ARP:1,2017-09-01T13:18:00Z,28.4330,-82.6670,10.0,1.84,141.53,3.62,'1111122,1111122,1111122' 
COMPS,ioos:station:USF.COMPS:ARP:1,2017-09-01T13:24:00Z,28.4330,-82.6670,10.0,1.94,155.21,3.23,'1111122,1111122,1111122' 
COMPS,ioos:station:USF.COMPS:ARP:1,2017-09-01T13:30:00Z,28.4330,-82.6670,10.0,1.67,157.05,3.42,'1111122,1111122,1111122' 
COMPS,ioos:station:USF.COMPS:ARP:1,2017-09-01T13:36:00Z,28.4330,-82.6670,10.0,1.44,132.96,3.23,'1111122,1111122,1111122' 
COMPS,ioos:station:USF.COMPS:ARP:1,2017-09-01T13:42:00Z,28.4330,-82.6670,10.0,1.22,166.39,3.13,'1111122,1111122,1111122' 
COMPS,ioos:station:USF.COMPS:ARP:1,2017-09-01T13:48:00Z,28.4330,-82.6670,10.0,1.81,166.01,4.11,'1111122,1111122,1111122' 
COMPS,ioos:station:USF.COMPS:ARP:1,2017-09-01T13:54:00Z,28.4330,-82.6670,10.0,1.22,174.65,2.05,'1111122,1111122,1111122' 
COMPS,ioos:station:USF.COMPS:ARP:1,2017-09-01T14:00:00Z,28.4330,-82.6670,10.0,1.61,204.68,2.93,'1111122,1111122,1111122' 
COMPS,ioos:station:USF.COMPS:ARP:1,2017-09-01T14:06:00Z,28.4330,-82.6670,10.0,1.71,207.2,3.13,'1111122,1111122,1111122' 
COMPS,ioos:station:USF.COMPS:ARP:1,2017-09-01T14:12:00Z,28.4330,-82.6670,10.0,1.88,207.99,3.72,'1111122,1111122,1111122' 
COMPS,ioos:station:USF.COMPS:ARP:1,2017-09-01T14:18:00Z,28.4330,-82.6670,10.0,1.29,201.74,2.54,'1111122,1111122,1111122' 
COMPS,ioos:station:USF.COMPS:ARP:1,2017-09-01T14:24:00Z,28.4330,-82.6670,10.0,1.65,178.78,2.84,'1111122,1111122,1111122' 
COMPS,ioos:station:USF.COMPS:ARP:1,2017-09-01T14:30:00Z,28.4330,-82.6670,10.0,1.46,176.11,2.84,'1111122,1111122,1111122' 
COMPS,ioos:station:USF.COMPS:ARP:1,2017-09-01T14:36:00Z,28.4330,-82.6670,10.0,1.65,177.5,3.13,'1111122,1111122,1111122' 
COMPS,ioos:station:USF.COMPS:ARP:1,2017-09-01T14:42:00Z,28.4330,-82.6670,10.0,1.56,188.56,3.42,'1111122,1111122,1111122' 
COMPS,ioos:station:USF.COMPS:ARP:1,2017-09-01T14:48:00Z,28.4330,-82.6670,10.0,1.7,225.65,3.52,'1111122,1111122,1111122' 
COMPS,ioos:station:USF.COMPS:ARP:1,2017-09-01T14:54:00Z,28.4330,-82.6670,10.0,1.75,226.12,3.72,'1111122,1111122,1111122' 
COMPS,ioos:station:USF.COMPS:ARP:1,2017-09-01T15:00:00Z,28.4330,-82.6670,10.0,1.7,184.32,4.21,'1111122,1111122,1111122' 
COMPS,ioos:station:USF.COMPS:ARP:1,2017-09-01T15:06:00Z,28.4330,-82.6670,10.0,1.43,203.58,3.13,'1111122,1111122,1111122' 
COMPS,ioos:station:USF.COMPS:ARP:1,2017-09-01T15:12:00Z,28.4330,-82.6670,10.0,1.59,217.82,3.33,'1111122,1111122,1111122' 
COMPS,ioos:station:USF.COMPS:ARP:1,2017-09-01T15:18:00Z,28.4330,-82.6670,10.0,1.75,198.85,3.33,'1111122,1111122,1111122' 
COMPS,ioos:station:USF.COMPS:ARP:1,2017-09-01T15:24:00Z,28.4330,-82.6670,10.0,1.55,205.76,3.42,'1111122,1111122,1111122' 
COMPS,ioos:station:USF.COMPS:ARP:1,2017-09-01T15:30:00Z,28.4330,-82.6670,10.0,2.08,195.47,3.72,'1111122,1111122,1111122' 
COMPS,ioos:station:USF.COMPS:ARP:1,2017-09-01T15:36:00Z,28.4330,-82.6670,10.0,1.87,219.98,4.01,'1111122,1111122,1111122' 
COMPS,ioos:station:USF.COMPS:ARP:1,2017-09-01T15:42:00Z,28.4330,-82.6670,10.0,1.29,219.17,2.15,'1111122,1111122,1111122' 
COMPS,ioos:station:USF.COMPS:ARP:1,2017-09-01T15:48:00Z,28.4330,-82.6670,10.0,2.05,254.09,3.03,'1111122,1111122,1111122' 
COMPS,ioos:station:USF.COMPS:ARP:1,2017-09-01T15:54:00Z,28.4330,-82.6670,10.0,2.19,245.01,3.62,'1111122,1111122,1111122' 
COMPS,ioos:station:USF.COMPS:ARP:1,2017-09-01T16:00:00Z,28.4330,-82.6670,10.0,2.37,264.48,4.31,'1111122,1111122,1111122' 
COMPS,ioos:station:USF.COMPS:ARP:1,2017-09-01T16:06:00Z,28.4330,-82.6670,10.0,4.28,275.63,5.68,'1111122,1111122,1111122' 
COMPS,ioos:station:USF.COMPS:ARP:1,2017-09-01T16:12:00Z,28.4330,-82.6670,10.0,5.43,283.21,6.95,'1111122,1111122,1111122' 
COMPS,ioos:station:USF.COMPS:ARP:1,2017-09-01T16:18:00Z,28.4330,-82.6670,10.0,4.36,275.25,6.07,'1111122,1111122,1111122' 
COMPS,ioos:station:USF.COMPS:ARP:1,2017-09-01T16:24:00Z,28.4330,-82.6670,10.0,3.92,281.29,5.29,'1111122,1111122,1111122' 
COMPS,ioos:station:USF.COMPS:ARP:1,2017-09-01T16:30:00Z,28.4330,-82.6670,10.0,5.16,286.28,6.37,'1111122,1111122,1111122' 
COMPS,ioos:station:USF.COMPS:ARP:1,2017-09-01T16:36:00Z,28.4330,-82.6670,10.0,4.07,279.65,5.48,'1111122,1111122,1111122' 
COMPS,ioos:station:USF.COMPS:ARP:1,2017-09-01T16:42:00Z,28.4330,-82.6670,10.0,4.78,286.64,6.17,'1111122,1111122,1111122' 
COMPS,ioos:station:USF.COMPS:ARP:1,2017-09-01T16:48:00Z,28.4330,-82.6670,10.0,5.07,285.91,6.17,'1111122,1111122,1111122' 
COMPS,ioos:station:USF.COMPS:ARP:1,2017-09-01T16:54:00Z,28.4330,-82.6670,10.0,4.86,282.8,6.27,'1111122,1111122,1111122' 
COMPS,ioos:station:USF.COMPS:ARP:1,2017-09-01T17:00:00Z,28.4330,-82.6670,10.0,4.28,283.86,5.87,'1111122,1111122,1111122' 
COMPS,ioos:station:USF.COMPS:ARP:1,2017-09-01T17:06:00Z,28.4330,-82.6670,10.0,4.88,288.29,6.46,'1111122,1111122,1111122' 
COMPS,ioos:station:USF.COMPS:ARP:1,2017-09-01T17:12:00Z,28.4330,-82.6670,10.0,4.93,287.03,6.66,'1111122,1111122,1111122' 
COMPS,ioos:station:USF.COMPS:ARP:1,2017-09-01T17:18:00Z,28.4330,-82.6670,10.0,4.65,290.91,6.46,'1111122,1111122,1111122' 
COMPS,ioos:station:USF.COMPS:ARP:1,2017-09-01T17:24:00Z,28.4330,-82.6670,10.0,3.82,284.25,5.39,'1111122,1111122,1111122' 
COMPS,ioos:station:USF.COMPS:ARP:1,2017-09-01T17:30:00Z,28.4330,-82.6670,10.0,3.66,288.07,4.6,'1111122,1111122,1111122' 
COMPS,ioos:station:USF.COMPS:ARP:1,2017-09-01T17:36:00Z,28.4330,-82.6670,10.0,3.5,279.69,4.8,'1111122,1111122,1111122' 
COMPS,ioos:station:USF.COMPS:ARP:1,2017-09-01T17:42:00Z,28.4330,-82.6670,10.0,3.65,268.02,4.6,'1111122,1111122,1111122' 
COMPS,ioos:station:USF.COMPS:ARP:1,2017-09-01T17:48:00Z,28.4330,-82.6670,10.0,3.8,265.7,5.09,'1111122,1111122,1111122' 
COMPS,ioos:station:USF.COMPS:ARP:1,2017-09-01T17:54:00Z,28.4330,-82.6670,10.0,2.99,260.81,5.09,'1111122,1111122,1111122' 
COMPS,ioos:station:USF.COMPS:ARP:1,2017-09-01T18:00:00Z,28.4330,-82.6670,10.0,2.29,262.43,4.31,'1111122,1111122,1111122' 
COMPS,ioos:station:USF.COMPS:ARP:1,2017-09-01T18:06:00Z,28.4330,-82.6670,10.0,2.01,259.81,3.52,'1111122,1111122,1111122' 
COMPS,ioos:station:USF.COMPS:ARP:1,2017-09-01T18:12:00Z,28.4330,-82.6670,10.0,1.54,256.73,3.62,'1111122,1111122,1111122' 
COMPS,ioos:station:USF.COMPS:ARP:1,2017-09-01T18:18:00Z,28.4330,-82.6670,10.0,1.42,231.28,2.74,'1111122,1111122,1111122' 
COMPS,ioos:station:USF.COMPS:ARP:1,2017-09-01T18:24:00Z,28.4330,-82.6670,10.0,1.74,233.05,4.31,'1111122,1111122,1111122' 
COMPS,ioos:station:USF.COMPS:ARP:1,2017-09-01T18:30:00Z,28.4330,-82.6670,10.0,1.59,220.85,3.33,'1111122,1111122,1111122' 
COMPS,ioos:station:USF.COMPS:ARP:1,2017-09-01T18:36:00Z,28.4330,-82.6670,10.0,1.04,168.65,2.64,'1111122,1111122,1111122' 
COMPS,ioos:station:USF.COMPS:ARP:1,2017-09-01T18:42:00Z,28.4330,-82.6670,10.0,1.21,157.65,2.45,'1111122,1111122,1111122' 
COMPS,ioos:station:USF.COMPS:ARP:1,2017-09-01T18:48:00Z,28.4330,-82.6670,10.0,0.71,198.99,1.46,'1111122,1111122,1111122' 
COMPS,ioos:station:USF.COMPS:ARP:1,2017-09-01T18:54:00Z,28.4330,-82.6670,10.0,1.38,262.42,2.93,'1111122,1111122,1111122' 
COMPS,ioos:station:USF.COMPS:ARP:1,2017-09-01T19:00:00Z,28.4330,-82.6670,10.0,2.1,275.09,3.52,'1111122,1111122,1111122' 
COMPS,ioos:station:USF.COMPS:ARP:1,2017-09-01T19:06:00Z,28.4330,-82.6670,10.0,2.88,274.9,4.8,'1111122,1111122,1111122' 
COMPS,ioos:station:USF.COMPS:ARP:1,2017-09-01T19:12:00Z,28.4330,-82.6670,10.0,2.55,282.1,3.42,'1111122,1111122,1111122' 
COMPS,ioos:station:USF.COMPS:ARP:1,2017-09-01T19:18:00Z,28.4330,-82.6670,10.0,3.4,277.82,4.41,'1111122,1111122,1111122' 
COMPS,ioos:station:USF.COMPS:ARP:1,2017-09-01T19:24:00Z,28.4330,-82.6670,10.0,3.25,284.27,4.21,'1111122,1111122,1111122' 
COMPS,ioos:station:USF.COMPS:ARP:1,2017-09-01T19:30:00Z,28.4330,-82.6670,10.0,3.7,286.15,4.7,'1111122,1111122,1111122' 
COMPS,ioos:station:USF.COMPS:ARP:1,2017-09-01T19:36:00Z,28.4330,-82.6670,10.0,3.33,281.79,4.31,'1111122,1111122,1111122' 